Regional Weather Roundup
Issued by NWS Charleston, SC

Current Version | Previous Version | Text Only | Print | Product List | Glossary Off
Versions: 1 2 3 4 5 6 7 8 9 10 11 12 13 14 15 16 17 18 19 20 21 22 23 24 25 26 27 28 29 30 31 32 33 34 35 36 37 38 39 40 41 42 43 44 45 46 47 48 49 50
000 ASUS42 KCHS 242013 RWRCHS REGIONAL WEATHER ROUNDUP NATIONAL WEATHER SERVICE CHARLESTON SC 400 PM EDT SAT SEP 24 2016 NOTE: "FAIR" INDICATES FEW OR NO CLOUDS BELOW 12,000 FEET WITH NO SIGNIFICANT WEATHER AND/OR OBSTRUCTIONS TO VISIBILITY. NOT ALL STATIONS ARE QUALITY CONTROLLED. USE DATA WITH CAUTION... ESPECIALLY DEWPOINT OBSERVATIONS. SCZ027-030-031-034>040-042>050-242100- ...SOUTHEAST SOUTH CAROLINA... CITY SKY/WX TMP DP RH WIND PRES REMARKS N CHARLESTON MOSUNNY 87 70 56 CALM 30.00F HX 92 WATERFRONT PRK N/A 83 76 79 SE6 30.00F HX 91 MOUNT PLEASANT FAIR 82 75 78 CALM 30.01F JOHNS ISLAND MOCLDY 84 75 74 E7 30.00F HX 92 PINOPOLIS N/A 84 73 70 VRB2 29.96F HX 91 MONCKS CORNER FAIR 84 70 61 NW3 30.01F SUMMERVILLE FAIR 88 72 58 CALM 30.02F HX 94 BEAUFORT MCAS SUNNY 89 70 53 VRB5 30.00F HX 94 BEAUFORT ARPT FAIR 86 70 58 NE5 30.00F HX 90 HILTON HEAD IS MOSUNNY 93 73 52 N6 30.01F HX 102 WALTERBORO PTCLDY 90 68 48 NE5 30.02F HX 93 ALLENDALE FAIR 88 66 48 CALM 30.01F HX 90 ...SOUTHERN MIDLANDS AND PEE DEE... CITY SKY/WX TMP DP RH WIND PRES REMARKS GEORGETOWN MOCLDY 81 72 74 SE8 30.02S KINGSTREE FAIR 88 64 45 NW3 30.01F ORANGEBURG SUNNY 88 67 49 VRB3 30.02F HX 91 BARNWELL NOT AVBL AIKEN FAIR 88 64 45 CALM 30.06F MANNING FAIR 86 64 48 CALM 30.01F COLUMBIA MOSUNNY 91 64 40 NE5 30.01F HX 92 SUMTER SUNNY 89 65 45 NE3 30.00F HX 91 FLORENCE SUNNY 88 67 49 VRB3 30.02F HX 91 MYRTLE BEACH MOSUNNY 84 68 58 VRB7 30.02 N MYRTLE BEACH SUNNY 83 73 72 S6 30.00F $$ GAZ063-065-086>088-099>101-113>116-118-119-134>141-150-242100- ...SOUTHEAST GEORGIA... CITY SKY/WX TMP DP RH WIND PRES REMARKS SAVANNAH ARPT PTSUNNY 89 68 49 CALM 30.01F HX 93 HUNTER AAF MOSUNNY 88 77 69 VRB7 29.98F HX 99 FORT STEWART PTSUNNY 86 70 58 CALM 29.99F HX 90 STATESBORO MOSUNNY 90 71 54 NE5 30.02F HX 96 SYLVANIA NOT AVBL CLAXTON FAIR 87 72 61 NE5 30.01F HX 93 ...CSRA...CENTRAL AND FAR SOUTHEAST GEORGIA... CITY SKY/WX TMP DP RH WIND PRES REMARKS THOMSON MOSUNNY 94 65 37 E5 30.06F HX 96 AUGUSTA-BUSH MOSUNNY 91 66 43 CALM 30.00F HX 93 AUGUSTA-DANIEL MOSUNNY 92 63 38 E5 30.03F HX 93 SWAINSBORO FAIR 90 64 43 E6 30.03F HX 91 VIDALIA CLOUDY 90 72 55 N5 30.02F HX 96 EASTMAN FAIR 93 46 19 NE6 30.04F HX 90 HAZLEHURST FAIR 91 69 48 SE3 30.00F HX 95 ALMA SUNNY 90 68 48 NE6 30.00F HX 94 WAYCROSS SUNNY 93 71 48 N6 29.99F HX 100 JESUP MOCLDY 90 77 66 NE7 30.00F HX 102 BAXLEY FAIR 90 72 55 CALM 30.00F HX 96 BRUNSWICK PTSUNNY 88 73 62 NE8 30.01F HX 96 SAINT SIMONS PTSUNNY 84 74 71 E9 30.01F HX 91 $$ SCZ027-028-034-036>038-045-046-048>050-GAZ119-141-242100- ...LAKE AND SUPPLEMENTAL COASTAL OBSERVATIONS... STATION/POSITION TIME TEMP WIND PRES WAVE SWELL AIR SEA DIR/SP/G HT/PER HT/PER/DIR (UTC) (F) (DEG/KT/KT) (MB) (FT/S) (FT/S/D) WINYAH BAY 1845 81 90/ 6 1016.0 LAKE MURRAY 1920 85 200/ 5/ 6 1016.6 ACE BASIN NERRS 1845 88 10/ 2 1017.0 FORT PULASKI 1942 83 81 80/ 5/ 6 1016.7F SAPELO ISLAND 1900 85 80/ 3 1017.0 $$ ANZ835-935-AMZ111-154-330-350-352-354-370-450-454-472-242100- ...C-MAN AND BUOY OBSERVATIONS... STATION/POSITION TIME TEMP WIND PRES WAVE SWELL AIR SEA DIR/SP/G HT/PER HT/PER/DIR (UTC) (F) (DEG/KT/KT) (MB) (FT/S) (FT/S/D) BUOY 41004 1950 81 83 20/ 12/ 14 1015.3F 3/10 3/ 90/10 BUOY 41008 1950 80 83 30/ 8/ 10 1016.0F 3/11 3/120/11 FOLLY BEACH CMAN 1900 81 100/ 4/ 5 1017.0F CAPERS NEARSHORE 1908 80 82 90/ 8/ 10 1016.3F FRIPP NEARSHORE 1908 87 82 90/ 6/ 8 1016.5F STATION/POSITION TIME TEMP WIND PRES WAVE SWELL AIR SEA DIR/SP/G HT/PER HT/PER/DIR (UTC) (F) (DEG/KT/KT) (MB) (FT/S) (FT/S/D) 5E ST. MARYS GA 1901 83 N/A 2/11 2/100/11 FRYING PAN BUOY 1950 80 82 30/ 8/ 10 1015.6F 4/11 3/120/11 BUOY 41025 1950 79 81 20/ 10/ 10 1015.9F 5/11 5/110/11 CAPE LOOKOUT NC 2000 79 80/ 6/ 7 1015.6F BUOY 41002 1950 82 83 280/ 8/ 10 1014.8F 4/ 9 3/110/ 9 BUOY 41010 NOT AVBL ST AUGUSTINE FL 2000 81 85 50/ 14/ 15 1016.7F $$

USA.gov is the U.S. government's official web portal to all federal, state and local government web resources and services.